Погода в Астаре

Погода в Астаре : погода сейчас, прогноз погоды и архив. Всё, что Вы хотите узнать о погоде в Астаре!

Поиск расширенной информации на нашем сайте:

Другие новости

Новости СМИ2

Главная страница сайта

Новости сайта

03.07.2017

Напоминаем, что на нашем специализированном сайте Метеоцентр.Азия вы можете получить высокодетализированные автоматические прогнозы погоды по пунктам России, СНГ и мира в авиационном формате (включающие направление и скорость ветра, видимость, явления погоды, количество и форму облачности, нижнюю и верхнюю границу облачности).

Рекомендуем: Заправка картриджей Молодежная для Samsung.

Погода в Астаре - сегодня

Время (UTC), дата Ветер
(°,м/с) 
Видим.   Явления Облачность Т
(°С)
Тd
(°С)
f(%) Тe
(°С)
Pmin
(гПа)
dP
(гПа)
Po
(мм)
O2
(г/м3)
Тmin Tmax R s Состояние
почвы
03 11.12.17 310 (СЗ) 4000 м    ясно 
+2.4 +1.9 97 +3  1020.2  -0.2  767  306           
06 11.12.17 030 (СВ) 20000 м    1/1 600 м 
[Cu hum]
+7.8 +4.1 77 +8  1021.5  1.2  768  300  +2.2       
09 11.12.17 060 (СВ) 20000 м    1/0 средняя 
[Ac trans]
+11.6 +6.8 72 +12  1020.8  -0.7  768  296           
12 11.12.17 120 (ЮВ) 20000 м    8/8 1000 м 
[Sc]
+11.2 +7 75 +12  1021.4  0.6  768  296           
15 11.12.17 320 (СЗ) 4000 м    ясно 
+8.4 +6.3 87 +8  1025.9  4.5  771  301           
21 11.12.17 010 (С) 4000 м    6/6 600 м 
[Sc]
+6.8 +4.1 83 +7  1030.6  1.7  775  304           
00 12.12.17 300 (СЗ) 4000 м    3/3 600 м 
[Cu hum]
+6.8 +3.9 82 +7  1030.3  -0.3  775  304           
03 12.12.17 280 (З) 4000 м    ясно 
+5.4 +1.3 75 +5  1029.6  -0.7  774  306           
06 12.12.17 300 (СЗ) 20000 м    4/0 верхняя 
[Ci fib]
+8.6 +2.7 66 +10  1029.8  0.2  774  302  +5.2       
09 12.12.17 070 (В) 20000 м    4/4 600 м средняя 
[Cu hum|Ac trans]
+13.2 +6.5 64 +14  1028.6  -1.2  773  296           
12 12.12.17 110 (В) 20000 м    4/4 600 м средняя 
[Cu hum|Ac trans]
+11.4 +7.8 79 +13  1027.3  -1.3  773  298           
15 12.12.17 280 (З) 4000 м    ясно 
+8.6 +6.7 88 +10  1028  0.7  773  301           
18 12.12.17 300 (СЗ) 4000 м    ясно 
+6.2 +4.8 91 +7  1027.9  -0.1  773  304    +13.3       
21 12.12.17 290 (З) 4000 м    6/6 600 м 
[Cu hum]
+5.8 +4.2 89 +7  1027.5  -0.4  773  304           
00 13.12.17 260 (З) 4000 м    4/4 600 м 
[Cu hum]
+5.3 +4.1 92 +6  1027.5  773  305           
03 13.12.17 330 (СЗ) 4000 м    4/4 600 м 
[Cu hum]
+5.4 +4.2 92 +6  1027.2  -0.3  772  305           
06 13.12.17 320 (СЗ) 20000 м    8/8 600 м 
[Sc]
+8.2 +4.8 79 +8  1027.6  0.4  773  302  +5.3       
09 13.12.17 040 (СВ) 20000 м    4/4 1000 м средняя 
[Cu hum|Ac trans]
+11.8 +8.3 79 +12  1026.8  -0.8  772  297           
12 13.12.17 040 (СВ) 20000 м    9/9 600 м 
[Sc]
+11 +7.7 80 +11  1025.6  -1.2  771  297           
15 13.12.17 280 (З) 4000 м    10/10 600 м 
[Sc]
+10.3 +7.1 81 +11  1025.5  -0.1  771  298           
21 13.12.17 020 (С) 4000 м    10/10 600 м 
[Sc]
+8.8 +6.7 87 +10  1024.7  -1  771  300           
00 14.12.17 360 (С) 4000 м    10/10 600 м 
[Sc]
+8.2 +6.1 87 +8  1024.2  -0.5  770  300           
03 14.12.17 350 (С) 4000 м    9/9 600 м 
[Sc]
+7.5 +6.2 91 +7  1023.6  -0.6  770  301           
06 14.12.17 340 (С) 20000 м    4/0 средняя 
[Ac trans]
+9.1 +5.6 79 +10  1024.5  0.9  770  300  +7.4       
09 14.12.17 030 (СВ) 20000 м    3/3 600 м 
[Cu hum]
+11.4 +7.3 76 +10  1023.1  -1.4  769  296           
Время (UTC), дата Ветер
(°,м/с) 
Видим.   Явления Облачность Т
(°С)
Тd
(°С)
f(%) Тe
(°С)
Pmin
(гПа)
dP
(гПа)
Po
(мм)
O2
(г/м3)
Тmin Tmax R s Состояние
почвы

Для получения пояснительной информации подведите курсор к названию столбца.

ПОГОДА в Астаре - архив

Всё, что Вы хотите узнать о погоде в Астаре - удобно и подробно!

Выберите нужную дату (начиная с 1 января 2015* года) и нажмите кнопку "Найти".
Будут отображены архивные сводки погоды по пункту Астара, начиная с указанной даты.


Отображать данные в формате CSV (для использования в таблицах Excel)


Внимание! Наш архив погоды предназначен исключительно для личного некоммерческого использования в познавательных целях. Если Вам необходимы официальные справки о состоянии погоды (для производственных, юридических, коммерческих и т.п. целей), обращайтесь в органы Росгидромета.

*Примечание: данная дата относится к архиву по метеостанциям СССР (Россия, СНГ, Балтия).
Архив по метеостанциям Зарубежной Европы и Азии (кроме Китая) хранится 10 дней, по другим регионам земного шара (Китай, Африка, Америка, Австралия, Океания) - 1 день.

Астара - район местоположения метеостанции


Название, широта, долгота, высота метеостанции:
Астара 38.4°ш. 48.9°д. -22 м над ур. моря [Азербайджан]

Дополнительная информация

В oтличие oт бoльшинства пoгoдных сайтoв мы публикуем пoдрoбную метеoинфoрмацию в детальнoм прoфессиoнальнoм фoрмате.

Характеристики температуры и влажнoсти вoздуха измеряются на высoте 2 м в тени вдали oт зданий и деревьев.
Скoрoсть ветра измеряется на высoте 10 м (на урoвне рoста челoвека скoрoсть ветра ниже в 1.5-2 раза). Если метеoстанция нахoдится в гoрoде или в лесу, тo скoрoсть ветра занижена на 2-4 м/с пo сравнению с oткрытым местoм. Скoрoсть ветра над акватoриями крупных рек и oзёр, а также на вершинах хoлмoв на 2-5 м/с выше, чем в oбычных услoвиях.
Атмoсфернoе давление в разных тoчках местнoсти мoжет значительнo oтличаться oт давления на метеoстанции, в зависимoсти oт услoвий рельефа (при пoдъёме на 10 м давление пoнижается примернo на 1 мм рт.ст.).